This is the latest recevied weather packets stored in our database for station/object F1AGU-13. If no packets are shown the sender has not sent any weather packets the latest 10 day(s).
| Time | Temp. | Humidity | Pressure | Rain* | Wind** | Luminosity | Snow |
|---|---|---|---|---|---|---|---|
| 1787650217 | 20° C | 79% | 1015.8 hPa | 0 mm | - | - | - |
| 1787649617 | 19.44° C | 79% | 1015.6 hPa | 0 mm | - | - | - |
| 1787649017 | 18.89° C | 86% | 1015.7 hPa | 0 mm | - | - | - |
| 1787648417 | 17.78° C | 83% | 1015.6 hPa | 0 mm | - | - | - |
| 1787647817 | 17.78° C | 88% | 1015.6 hPa | 0 mm | - | - | - |
| 1787647215 | 16.67° C | 92% | 1015.4 hPa | 0 mm | - | - | - |
| 1787646617 | 16.11° C | 90% | 1015.7 hPa | 0 mm | - | - | - |
| 1787646017 | 15.56° C | 95% | 1015.5 hPa | 0 mm | - | - | - |
| 1787645417 | 15° C | 95% | 1015.3 hPa | 0 mm | - | - | - |
| 1787644817 | 14.44° C | 97% | 1015.5 hPa | 0 mm | - | - | - |
| 1787644217 | 13.89° C | 98% | 1015.3 hPa | 0 mm | - | - | - |
| 1787643617 | 12.78° C | 97% | 1015.1 hPa | 0 mm | - | - | - |
| 1787643017 | 12.78° C | 97% | 1015.1 hPa | 0 mm | - | - | - |
| 1787642417 | 12.22° C | 97% | 1014.9 hPa | 0 mm | - | - | - |
| 1787641817 | 12.22° C | 97% | 1014.7 hPa | 0 mm | - | - | - |
| 1787641217 | 12.22° C | 97% | 1014.8 hPa | 0 mm | - | - | - |
| 1787640617 | 12.22° C | 97% | 1014.9 hPa | 0 mm | - | - | - |
| 1787640017 | 12.22° C | 97% | 1014.9 hPa | 0 mm | - | - | - |
| 1787639417 | 12.22° C | 97% | 1014.8 hPa | 0 mm | - | - | - |
| 1787638817 | 12.22° C | 97% | 1014.7 hPa | 0 mm | - | - | - |
| 1787638217 | 12.22° C | 97% | 1014.6 hPa | 0 mm | - | - | - |
| 1787637617 | 12.22° C | 97% | 1014.6 hPa | 0 mm | - | - | - |
| 1787637017 | 12.22° C | 97% | 1014.6 hPa | 0 mm | - | - | - |
| 1787636417 | 12.22° C | 97% | 1014.4 hPa | 0 mm | - | - | - |
| 1787635817 | 12.22° C | 97% | 1014.6 hPa | 0 mm | - | - | - |
* Rain latest hour (hover to see other rain measurements)
** Current wind speed in m/s (hover to see current wind gust speed)